Terminal Aerodrome Forecast
Issued by NWS Omaha/Valley, NE

Home | Current Version | Previous Version | Graphics & Text | Print | Product List | Glossary On
Versions: 1 2 3 4 5 6 7 8 9 10 11 12 13 14 15 16 17 18 19 20 21 22 23 24 25 26 27 28 29 30 31 32 33 34 35 36 37
032
FTUS43 KOAX 121003 AAA
TAFOFK
TAF AMD
KOFK 121003Z 1210/1306 33013KT P6SM OVC015
      TEMPO 1210/1214 OVC006
     FM121600 35015KT P6SM OVC050
     FM130000 02007KT P6SM BKN100=

USA.gov is the U.S. government's official web portal to all federal, state and local government web resources and services.